Location: Poughquag
(41.6090°N, 73.6820°W)
Time: 12:23:55
(UTC-04:00)

Vanguard 2 - Pass Details

Date: 02 June 2020
Orbit: 552 x 2938 km, 32.9° (Epoch: 05 July)

Event Time Altitude Azimuth Distance (km) Brightness Sun altitude
Rises 22:49:19 0° 269° (W) 5,158 12.2 -19.9°
Reaches altitude 10° 22:53:39 10° 262° (W) 3,735 11.3 -20.3°
Maximum altitude 23:01:28 34° 202° (SSW) 1,693 8.9 -21.0°
Enters shadow 23:02:29 33° 184° (S) 1,661 8.7 -21.1°
Drops below altitude 10° 23:06:35 10° 138° (SE) 2,411 - -21.5°
Sets 23:08:49 0° 128° (SE) 3,141 - -21.6°
